Location: Newark
(39.6867°N, 100.6772°W)
Time: 01:00:33
(UTC+00:00)

LightSail 2 - Visible Passes

Search period start: 20 September 2019 00:00
Search period end: 30 September 2019 00:00
Orbit: 700 x 732 km, 24.0° (Epoch: 19 September)

Date Brightness Start Highest point End Pass type
(mag) Time Alt. Az. Time Alt. Az. Time Alt. Az.
23 Sep 7.4 11:10:34 10° SSW 11:12:14 11° S 11:13:54 10° SSE visible
24 Sep 7.3 11:57:37 10° SSW 11:59:57 13° S 12:02:16 10° SSE visible
25 Sep 7.2 11:01:33 12° SSW 11:02:58 13° S 11:05:13 10° SSE visible
26 Sep 7.6 10:07:54 10° SSE 10:07:54 10° SSE 10:07:59 10° SSE visible
26 Sep 7.3 11:48:40 10° SSW 11:50:40 12° S 11:52:39 10° SSE visible
27 Sep 7.2 10:53:17 13° S 10:53:41 13° S 10:55:56 10° SSE visible
28 Sep 7.4 11:40:56 10° SSW 11:41:21 10° SSW 11:41:47 10° S visible
29 Sep 7.4 10:45:06 11° S 10:45:06 11° S 10:46:04 10° SSE visible
